This is the latest recevied weather packets stored in our database for station/object KC3ELT-10. If no packets are shown the sender has not sent any weather packets the latest 1 day(s).
| Time | Temp. | Humidity | Pressure | Rain* | Wind** | Luminosity | Snow |
|---|---|---|---|---|---|---|---|
| 1778046479 | 17.78° C | 68% | 1003 hPa | 0 mm | 2.68 m/s, 200° | - | - |
| 1778046179 | 17.78° C | 67% | 1003 hPa | 0 mm | 3.13 m/s, 203° | - | - |
| 1778045879 | 17.78° C | 67% | 1003 hPa | 0 mm | 1.79 m/s, 187° | - | - |
| 1778045579 | 17.78° C | 67% | 1003 hPa | 0 mm | 1.34 m/s, 198° | - | - |
| 1778045279 | 17.78° C | 67% | 1003.2 hPa | 0 mm | 2.68 m/s, 206° | - | - |
| 1778044979 | 17.78° C | 67% | 1003.2 hPa | 0 mm | 1.79 m/s, 173° | - | - |
| 1778044679 | 17.78° C | 66% | 1003.2 hPa | 0 mm | 0.89 m/s, 167° | - | - |
| 1778044379 | 17.78° C | 66% | 1003.3 hPa | 0 mm | 1.34 m/s, 202° | - | - |
| 1778044079 | 17.78° C | 67% | 1003.3 hPa | 0 mm | 2.68 m/s, 146° | - | - |
| 1778043779 | 17.78° C | 67% | 1003.3 hPa | 0 mm | 1.34 m/s, 188° | - | - |
| 1778043479 | 17.78° C | 67% | 1003.4 hPa | 0 mm | 1.79 m/s, 213° | - | - |
| 1778043179 | 17.78° C | 67% | 1003.4 hPa | 0 mm | 0.89 m/s, 178° | - | - |
| 1778042879 | 17.78° C | 67% | 1003.4 hPa | 0 mm | 0.89 m/s, 165° | - | - |
| 1778042579 | 17.78° C | 67% | 1003.4 hPa | 0 mm | 1.79 m/s, 207° | - | - |
| 1778042279 | 17.78° C | 66% | 1003.4 hPa | 0 mm | 2.24 m/s, 167° | - | - |
| 1778041979 | 17.78° C | 66% | 1003.4 hPa | 0 mm | 4.92 m/s, 200° | - | - |
| 1778041679 | 17.78° C | 65% | 1003.4 hPa | 0 mm | 0.89 m/s, 190° | - | - |
| 1778041379 | 17.78° C | 65% | 1003.4 hPa | 0 mm | 0 m/s | - | - |
| 1778041079 | 17.78° C | 65% | 1003.4 hPa | 0 mm | 4.02 m/s, 131° | - | - |
| 1778040779 | 18.33° C | 64% | 1003.2 hPa | 0 mm | 1.34 m/s, 171° | - | - |
| 1778040479 | 18.33° C | 64% | 1003.2 hPa | 0 mm | 2.68 m/s, 162° | - | - |
| 1778040179 | 18.33° C | 63% | 1003.2 hPa | 0 mm | 2.68 m/s, 150° | - | - |
| 1778039879 | 18.33° C | 62% | 1003.3 hPa | 0 mm | 2.68 m/s, 219° | - | - |
| 1778039579 | 18.33° C | 62% | 1003.3 hPa | 0 mm | 2.24 m/s, 176° | - | - |
| 1778039279 | 18.89° C | 61% | 1003.3 hPa | 0 mm | 0.89 m/s, 167° | - | - |
* Rain latest hour (hover to see other rain measurements)
** Current wind speed in m/s (hover to see current wind gust speed)